Location: Unspecified
(0.0000°N, 0.0000°E)
Time: 16:19:40
(UTC+00:00)

Transit 4A - Pass Details

Date: 28 November 2019
Orbit: 870 x 975 km, 66.8° (Epoch: 13 December)

Event Time Altitude Azimuth Distance (km) Brightness Sun altitude
Rises 06:52:45 0° 323° (NW) 3,441 10.4 15.1°
Reaches altitude 10° 06:55:24 10° 315° (NW) 2,507 9.7 15.7°
Maximum altitude 07:00:36 35° 250° (WSW) 1,373 8.6 16.9°
Drops below altitude 10° 07:05:55 10° 185° (S) 2,547 10.5 18.2°
Sets 07:08:39 0° 177° (S) 3,502 11.3 18.8°
